NOZ123 EFHK-EFOU

Flight info

Callsign NOZ123
Flight time 0h 54m
Altitude 32000
Route TEVRU Y75 SUVIB
Aircraft B738/M-SDE2E3FGHIRWXY/LB1

Departure

Time 2026-04-30 20:33
Airport Helsinki Vantaa Airport (EFHK)

Arrival

Time 2026-04-30 21:28
Airport Oulu Airport (EFOU)
Time Latitude Longitude Altitude Speed Heading
2026-04-30 19:57 60.32033 24.96591 166 ft 0 kts 137°
2026-04-30 20:24 60.32028 24.96600 166 ft 5 kts 137°
2026-04-30 20:25 60.31958 24.96550 166 ft 14 kts 226°
2026-04-30 20:25 60.31873 24.96360 166 ft 22 kts 230°
2026-04-30 20:26 60.31989 24.96095 168 ft 4 kts 46°
2026-04-30 20:26 60.32030 24.96181 167 ft 4 kts 45°
2026-04-30 20:26 60.32050 24.96224 167 ft 4 kts 49°
2026-04-30 20:27 60.32087 24.96311 167 ft 5 kts 48°
2026-04-30 20:27 60.32223 24.96608 167 ft 14 kts 47°
2026-04-30 20:28 60.32333 24.96632 169 ft 8 kts 331°
2026-04-30 20:28 60.32522 24.96413 173 ft 22 kts 330°
2026-04-30 20:29 60.32776 24.96114 172 ft 21 kts 329°
2026-04-30 20:30 60.33121 24.95678 179 ft 19 kts 317°
2026-04-30 20:30 60.33108 24.95052 177 ft 18 kts 270°
2026-04-30 20:31 60.33098 24.94355 192 ft 16 kts 232°
2026-04-30 20:32 60.33074 24.94302 193 ft 2 kts 227°
2026-04-30 20:32 60.33067 24.94286 189 ft 6 kts 227°
2026-04-30 20:33 60.32892 24.93897 182 ft 75 kts 227°
2026-04-30 20:33 60.31589 24.91068 397 ft 175 kts 228°
2026-04-30 20:33 60.30759 24.89347 1332 ft 173 kts 230°
2026-04-30 20:34 60.29758 24.84882 2298 ft 200 kts 291°
2026-04-30 20:34 60.31019 24.80556 2882 ft 227 kts 302°
2026-04-30 20:35 60.31723 24.77661 3506 ft 234 kts 298°
2026-04-30 20:35 60.32492 24.74619 3930 ft 250 kts 301°
2026-04-30 20:35 60.34259 24.68413 5652 ft 257 kts 302°
2026-04-30 20:36 60.35172 24.65308 6577 ft 257 kts 309°
2026-04-30 20:36 60.36514 24.63040 7422 ft 252 kts 340°
2026-04-30 20:36 60.39953 24.62900 9166 ft 254 kts 12°
2026-04-30 20:37 60.41673 24.63799 10035 ft 257 kts 13°
2026-04-30 20:37 60.43418 24.64734 10677 ft 266 kts 12°
2026-04-30 20:37 60.45304 24.65654 10862 ft 291 kts 11°
2026-04-30 20:37 60.47357 24.66570 11065 ft 314 kts 11°
2026-04-30 20:38 60.49566 24.67535 11250 ft 335 kts 11°
2026-04-30 20:38 60.51882 24.68556 11726 ft 345 kts 11°
2026-04-30 20:38 60.54236 24.69610 12441 ft 347 kts 11°
2026-04-30 20:39 60.58960 24.71757 14039 ft 349 kts 11°
2026-04-30 20:39 60.61338 24.72848 14678 ft 352 kts 11°
2026-04-30 20:39 60.63736 24.73954 15318 ft 354 kts 11°
2026-04-30 20:40 60.68570 24.76193 16605 ft 359 kts 11°
2026-04-30 20:40 60.71009 24.77326 17232 ft 361 kts 11°
2026-04-30 20:40 60.73469 24.78470 17852 ft 364 kts 11°
2026-04-30 20:41 60.78442 24.80787 18965 ft 369 kts 11°
2026-04-30 20:41 60.80950 24.81959 19480 ft 371 kts 11°
2026-04-30 20:41 60.83489 24.83047 19974 ft 373 kts
2026-04-30 20:41 60.86068 24.83753 20469 ft 375 kts
2026-04-30 20:42 60.88639 24.84280 20948 ft 377 kts
2026-04-30 20:42 60.91260 24.84790 21428 ft 380 kts
2026-04-30 20:42 60.96559 24.85916 22324 ft 385 kts
2026-04-30 20:43 60.99234 24.86531 22765 ft 388 kts
2026-04-30 20:43 61.01925 24.87165 23196 ft 391 kts
2026-04-30 20:43 61.04634 24.87811 23625 ft 393 kts
2026-04-30 20:44 61.10101 24.89119 24347 ft 397 kts
2026-04-30 20:44 61.12854 24.89778 24711 ft 399 kts
2026-04-30 20:44 61.18392 24.91104 25396 ft 403 kts
2026-04-30 20:45 61.23983 24.92449 26034 ft 406 kts
2026-04-30 20:45 61.26796 24.93130 26345 ft 408 kts
2026-04-30 20:45 61.29624 24.93817 26647 ft 410 kts
2026-04-30 20:46 61.38093 24.95884 27978 ft 405 kts
2026-04-30 20:46 61.40892 24.96569 28173 ft 408 kts
2026-04-30 20:47 61.49369 24.98651 28190 ft 405 kts
2026-04-30 20:48 61.54989 25.00036 28442 ft 409 kts
2026-04-30 20:48 61.57811 25.00734 28884 ft 407 kts
2026-04-30 20:48 61.60613 25.01427 29405 ft 404 kts
2026-04-30 20:48 61.63358 25.01968 29945 ft 400 kts
2026-04-30 20:49 61.66126 25.02219 30409 ft 397 kts 359°
2026-04-30 20:49 61.68880 25.02203 30747 ft 396 kts 358°
2026-04-30 20:49 61.71637 25.02135 31031 ft 397 kts 358°
2026-04-30 20:50 61.77159 25.02172 31624 ft 397 kts 360°
2026-04-30 20:50 61.79916 25.02269 31939 ft 396 kts 360°
2026-04-30 20:50 61.82674 25.02380 32197 ft 397 kts 360°
2026-04-30 20:51 61.88243 25.02595 32184 ft 400 kts 360°
2026-04-30 20:51 61.96520 25.02892 32191 ft 394 kts 360°
2026-04-30 20:52 62.02000 25.03088 32194 ft 394 kts 359°
2026-04-30 20:53 62.10187 25.03384 32194 ft 394 kts 359°
2026-04-30 20:53 62.15672 25.03584 32194 ft 395 kts 359°
2026-04-30 20:54 62.23915 25.03901 32190 ft 396 kts 359°
2026-04-30 20:55 62.32192 25.04226 32184 ft 397 kts 359°
2026-04-30 20:55 62.37729 25.04443 32186 ft 398 kts 359°
2026-04-30 20:56 62.46060 25.04772 32182 ft 399 kts 359°
2026-04-30 20:57 62.54399 25.05102 32189 ft 400 kts 359°
2026-04-30 20:57 62.59967 25.05323 32191 ft 400 kts 359°
2026-04-30 20:58 62.68328 25.05657 32190 ft 401 kts 359°
2026-04-30 20:58 62.73899 25.05875 32191 ft 401 kts 359°
2026-04-30 20:59 62.81320 25.06165 32193 ft 401 kts 359°
2026-04-30 21:00 62.93405 25.06641 32193 ft 400 kts 359°
2026-04-30 21:01 63.01764 25.06972 32191 ft 400 kts 359°
2026-04-30 21:02 63.10125 25.07305 32182 ft 401 kts 358°
2026-04-30 21:02 63.15698 25.07528 32186 ft 401 kts 358°
2026-04-30 21:03 63.21280 25.07752 32178 ft 401 kts 358°
2026-04-30 21:03 63.26859 25.07977 32185 ft 401 kts 358°
2026-04-30 21:03 63.29659 25.08089 31832 ft 407 kts 358°
2026-04-30 21:04 63.32494 25.08205 31309 ft 403 kts 358°
2026-04-30 21:04 63.35299 25.08323 30577 ft 404 kts 358°
2026-04-30 21:04 63.40884 25.08560 29301 ft 397 kts 358°
2026-04-30 21:05 63.43590 25.08675 28774 ft 391 kts 358°
2026-04-30 21:05 63.46293 25.08790 28228 ft 386 kts 358°
2026-04-30 21:05 63.48964 25.08903 27705 ft 381 kts 358°
2026-04-30 21:05 63.51600 25.09014 27185 ft 377 kts 358°
2026-04-30 21:06 63.54209 25.09123 26654 ft 373 kts 358°
2026-04-30 21:06 63.56797 25.09231 26138 ft 370 kts 358°
2026-04-30 21:06 63.59360 25.09339 25635 ft 367 kts 358°
2026-04-30 21:06 63.61907 25.09447 25134 ft 364 kts 358°
2026-04-30 21:07 63.64429 25.09553 24645 ft 361 kts 358°
2026-04-30 21:07 63.66933 25.09659 24149 ft 358 kts 358°
2026-04-30 21:07 63.69417 25.09765 23648 ft 356 kts 358°
2026-04-30 21:07 63.71887 25.09870 23079 ft 354 kts 358°
2026-04-30 21:08 63.74334 25.09975 22588 ft 350 kts 358°
2026-04-30 21:08 63.76759 25.10079 22086 ft 347 kts 358°
2026-04-30 21:08 63.79167 25.10181 21386 ft 349 kts 358°
2026-04-30 21:08 63.81584 25.10282 20898 ft 346 kts 358°
2026-04-30 21:09 63.83985 25.10382 20375 ft 344 kts 358°
2026-04-30 21:09 63.86365 25.10482 19903 ft 341 kts 358°
2026-04-30 21:09 63.88732 25.10581 19427 ft 338 kts 358°
2026-04-30 21:09 63.91076 25.10679 18959 ft 336 kts 358°
2026-04-30 21:10 63.93405 25.10777 18506 ft 334 kts 358°
2026-04-30 21:10 63.95716 25.10874 17996 ft 331 kts 358°
2026-04-30 21:10 63.98010 25.10970 17539 ft 328 kts 358°
2026-04-30 21:10 64.00282 25.11065 17074 ft 325 kts 358°
2026-04-30 21:11 64.02534 25.11159 16620 ft 322 kts 358°
2026-04-30 21:11 64.04764 25.11253 16183 ft 319 kts 358°
2026-04-30 21:11 64.06986 25.11346 15736 ft 318 kts 358°
2026-04-30 21:11 64.09187 25.11439 15294 ft 316 kts 358°
2026-04-30 21:12 64.11388 25.11531 14861 ft 317 kts 358°
2026-04-30 21:12 64.13600 25.11624 14418 ft 319 kts 358°
2026-04-30 21:12 64.15808 25.11854 13844 ft 327 kts
2026-04-30 21:12 64.18074 25.12612 13321 ft 330 kts
2026-04-30 21:13 64.20287 25.14035 12830 ft 331 kts 16°
2026-04-30 21:13 64.22415 25.16019 12364 ft 329 kts 20°
2026-04-30 21:13 64.24493 25.18194 11900 ft 327 kts 20°
2026-04-30 21:13 64.26565 25.20333 11443 ft 325 kts 20°
2026-04-30 21:14 64.28634 25.22368 11038 ft 321 kts 19°
2026-04-30 21:14 64.30656 25.24271 10915 ft 309 kts 18°
2026-04-30 21:14 64.32623 25.26062 10776 ft 299 kts 18°
2026-04-30 21:14 64.34529 25.27761 10651 ft 289 kts 17°
2026-04-30 21:15 64.36379 25.29388 10521 ft 280 kts 17°
2026-04-30 21:15 64.38170 25.30953 10400 ft 271 kts 17°
2026-04-30 21:15 64.39324 25.31958 10325 ft 265 kts 17°
2026-04-30 21:15 64.41588 25.33927 10174 ft 254 kts 17°
2026-04-30 21:16 64.43237 25.35360 9929 ft 252 kts 16°
2026-04-30 21:16 64.44870 25.36777 9656 ft 250 kts 17°
2026-04-30 21:16 64.46495 25.38188 9375 ft 249 kts 17°
2026-04-30 21:16 64.48109 25.39591 9095 ft 247 kts 17°
2026-04-30 21:17 64.49177 25.40522 8907 ft 247 kts 17°
2026-04-30 21:17 64.51319 25.42390 8531 ft 245 kts 17°
2026-04-30 21:17 64.52378 25.43314 8347 ft 245 kts 17°
2026-04-30 21:17 64.53969 25.44706 8069 ft 244 kts 17°
2026-04-30 21:18 64.55561 25.46100 7792 ft 244 kts 17°
2026-04-30 21:18 64.57662 25.47942 7423 ft 244 kts 17°
2026-04-30 21:18 64.59248 25.49335 7142 ft 243 kts 17°
2026-04-30 21:18 64.60829 25.50727 6863 ft 243 kts 17°
2026-04-30 21:19 64.62414 25.52122 6576 ft 243 kts 17°
2026-04-30 21:19 64.63487 25.53068 6359 ft 244 kts 17°
2026-04-30 21:19 64.65078 25.54472 6065 ft 244 kts 17°
2026-04-30 21:19 64.66669 25.55877 5749 ft 245 kts 17°
2026-04-30 21:20 64.68269 25.57293 5448 ft 246 kts 18°
2026-04-30 21:20 64.69869 25.58710 5123 ft 247 kts 18°
2026-04-30 21:20 64.71444 25.60109 4964 ft 238 kts 18°
2026-04-30 21:20 64.72949 25.61452 4837 ft 225 kts 18°
2026-04-30 21:21 64.74373 25.62722 4722 ft 213 kts 18°
2026-04-30 21:21 64.75718 25.63921 4602 ft 201 kts 17°
2026-04-30 21:21 64.78284 25.66205 4117 ft 191 kts 17°
2026-04-30 21:22 64.79480 25.67276 4018 ft 179 kts 17°
2026-04-30 21:22 64.82852 25.70262 3542 ft 169 kts 12°
2026-04-30 21:23 64.83996 25.70128 3425 ft 169 kts 326°
2026-04-30 21:23 64.84672 25.67915 3289 ft 172 kts 290°
2026-04-30 21:23 64.85929 25.63327 2866 ft 163 kts 318°
2026-04-30 21:24 64.86683 25.61451 2721 ft 153 kts 299°
2026-04-30 21:24 64.86919 25.59063 2482 ft 148 kts 276°
2026-04-30 21:24 64.87094 25.56690 2246 ft 147 kts 295°
2026-04-30 21:24 64.87860 25.55184 2081 ft 150 kts 337°
2026-04-30 21:25 64.89541 25.52685 1637 ft 146 kts 283°
2026-04-30 21:25 64.89567 25.50269 1404 ft 148 kts 273°
2026-04-30 21:25 64.89812 25.47984 1287 ft 146 kts 297°
2026-04-30 21:26 64.90855 25.43820 843 ft 148 kts 301°
2026-04-30 21:26 64.91398 25.41718 596 ft 152 kts 297°
2026-04-30 21:27 64.92502 25.37412 95 ft 153 kts 301°
2026-04-30 21:27 64.93023 25.35394 53 ft 126 kts 301°
2026-04-30 21:27 64.93398 25.33922 53 ft 83 kts 301°
2026-04-30 21:28 64.93689 25.33274 50 ft 23 kts 27°
2026-04-30 21:28 64.93678 25.33592 50 ft 22 kts 121°
2026-04-30 21:28 64.93524 25.34191 47 ft 21 kts 122°
2026-04-30 21:29 64.93449 25.34478 48 ft 20 kts 120°
2026-04-30 21:29 64.93242 25.35295 50 ft 20 kts 121°
2026-04-30 21:30 64.93078 25.35937 47 ft 22 kts 121°
2026-04-30 21:31 64.92847 25.36843 47 ft 21 kts 120°
2026-04-30 21:31 64.92747 25.37250 49 ft 3 kts 99°
2026-04-30 21:32 64.92779 25.37326 50 ft 3 kts 32°
2026-04-30 21:32 64.92795 25.37349 49 ft 1 kts 31°
2026-04-30 21:32 64.92799 25.37354 50 ft 0 kts 31°